Wetterdaten: Donnerstag, 16.08.2012
Datum Zeit Temperatur Luftfeuchte Regen Wind Richtung Richtung Taupunkt Windchill Windben
16.08.2012 00:00 14,5 C 85 % 0,0 l/m 0,0 km/h (0 Bft) N-NW 337 12,0 C 13,9 C 0,0 km/h (0 Bft)
16.08.2012 00:05 14,3 C 85 % 0,0 l/m 0,0 km/h (0 Bft) SO 135 11,8 C 13,9 C 0,0 km/h (0 Bft)
16.08.2012 00:10 14,3 C 85 % 0,0 l/m 0,0 km/h (0 Bft) N 360 11,8 C 13,8 C 0,0 km/h (0 Bft)
16.08.2012 00:15 14,3 C 86 % 0,0 l/m 0,0 km/h (0 Bft) W 270 12,0 C 13,8 C 0,0 km/h (0 Bft)
16.08.2012 00:20 14,1 C 86 % 0,0 l/m 0,0 km/h (0 Bft) N-NO 22 11,8 C 13,7 C 0,0 km/h (0 Bft)
16.08.2012 00:25 14,0 C 86 % 0,0 l/m 0,0 km/h (0 Bft) NO 45 11,7 C 13,6 C 0,0 km/h (0 Bft)
16.08.2012 00:30 13,9 C 86 % 0,0 l/m 0,0 km/h (0 Bft) W-NW 292 11,6 C 13,5 C 0,0 km/h (0 Bft)
16.08.2012 00:35 14,2 C 88 % 0,0 l/m 0,2 km/h (0 Bft) N-NW 337 12,2 C 13,5 C 2,6 km/h (1 Bft)
16.08.2012 00:40 14,4 C 88 % 0,0 l/m 0,6 km/h (0 Bft) N-NO 22 12,4 C 13,5 C 0,0 km/h (0 Bft)
16.08.2012 00:45 14,2 C 87 % 0,0 l/m 0,5 km/h (0 Bft) SO 135 12,1 C 13,7 C 0,0 km/h (0 Bft)
16.08.2012 00:50 14,0 C 87 % 0,0 l/m 0,0 km/h (0 Bft) NO 45 11,9 C 13,6 C 0,0 km/h (0 Bft)
16.08.2012 00:55 14,4 C 87 % 0,0 l/m 0,3 km/h (0 Bft) N-NO 22 12,3 C 13,6 C 0,0 km/h (0 Bft)
16.08.2012 01:00 14,1 C 86 % 0,0 l/m 0,3 km/h (0 Bft) S-SW 202 11,8 C 13,7 C 0,0 km/h (0 Bft)
16.08.2012 01:05 14,1 C 86 % 0,0 l/m 0,0 km/h (0 Bft) NW 315 11,8 C 13,5 C 0,0 km/h (0 Bft)
16.08.2012 01:10 13,9 C 86 % 0,0 l/m 0,0 km/h (0 Bft) N 360 11,6 C 13,5 C 0,0 km/h (0 Bft)
16.08.2012 01:15 14,0 C 86 % 0,0 l/m 0,0 km/h (0 Bft) O-SO 112 11,7 C 13,5 C 0,0 km/h (0 Bft)
16.08.2012 01:20 13,9 C 86 % 0,0 l/m 0,0 km/h (0 Bft) S 180 11,6 C 13,4 C 0,0 km/h (0 Bft)
16.08.2012 01:25 14,0 C 86 % 0,0 l/m 0,0 km/h (0 Bft) SW 225 11,7 C 13,4 C 0,0 km/h (0 Bft)
16.08.2012 01:30 13,9 C 86 % 0,0 l/m 0,0 km/h (0 Bft) N 360 11,6 C 13,4 C 0,0 km/h (0 Bft)
16.08.2012 01:35 13,9 C 86 % 0,0 l/m 0,0 km/h (0 Bft) W 270 11,6 C 13,5 C 0,0 km/h (0 Bft)
16.08.2012 01:40 14,1 C 86 % 0,0 l/m 0,0 km/h (0 Bft) N 360 11,8 C 13,5 C 0,0 km/h (0 Bft)
16.08.2012 01:45 14,0 C 86 % 0,0 l/m 0,0 km/h (0 Bft) N-NO 22 11,7 C 13,6 C 0,0 km/h (0 Bft)
16.08.2012 01:50 14,2 C 86 % 0,0 l/m 0,0 km/h (0 Bft) N-NO 22 11,9 C 13,7 C 0,0 km/h (0 Bft)
16.08.2012 01:55 14,1 C 86 % 0,0 l/m 0,0 km/h (0 Bft) S 180 11,8 C 13,7 C 0,0 km/h (0 Bft)
16.08.2012 02:00 14,4 C 86 % 0,0 l/m 0,0 km/h (0 Bft) W-SW 247 12,1 C 13,8 C 0,0 km/h (0 Bft)
16.08.2012 02:05 14,6 C 86 % 0,0 l/m 0,0 km/h (0 Bft) S-SO 157 12,3 C 14,1 C 0,0 km/h (0 Bft)
16.08.2012 02:10 14,9 C 85 % 0,0 l/m 0,0 km/h (0 Bft) O-NO 67 12,4 C 14,4 C 0,0 km/h (0 Bft)
16.08.2012 02:15 14,9 C 85 % 0,0 l/m 0,0 km/h (0 Bft) O-SO 112 12,4 C 14,6 C 3,4 km/h (1 Bft)
16.08.2012 02:20 14,9 C 85 % 0,0 l/m 0,6 km/h (0 Bft) W 270 12,4 C 14,9 C 0,0 km/h (0 Bft)
16.08.2012 02:25 16,0 C 84 % 0,0 l/m 4,0 km/h (1 Bft) O-SO 112 13,3 C 15,6 C 14,3 km/h (3 Bft)
16.08.2012 02:30 16,8 C 80 % 0,0 l/m 8,4 km/h (2 Bft) O-SO 112 14,0 C 16,0 C 19,3 km/h (3 Bft)
16.08.2012 02:35 17,5 C 79 % 0,0 l/m 12,1 km/h (2 Bft) S-SO 157 14,3 C 15,8 C 21,6 km/h (4 Bft)
16.08.2012 02:40 17,8 C 79 % 0,0 l/m 12,4 km/h (3 Bft) S-SO 157 14,4 C 16,1 C 19,3 km/h (3 Bft)
16.08.2012 02:45 18,0 C 79 % 0,0 l/m 11,3 km/h (2 Bft) O-SO 112 14,3 C 16,5 C 7,6 km/h (2 Bft)
16.08.2012 02:50 18,0 C 80 % 0,0 l/m 10,0 km/h (2 Bft) SO 135 14,5 C 16,8 C 14,3 km/h (3 Bft)
16.08.2012 02:55 18,1 C 81 % 0,0 l/m 10,6 km/h (2 Bft) SO 135 14,8 C 16,5 C 23,8 km/h (4 Bft)
16.08.2012 03:00 18,1 C 81 % 0,0 l/m 12,6 km/h (3 Bft) SO 135 14,8 C 15,8 C 19,2 km/h (3 Bft)
16.08.2012 03:05 18,1 C 81 % 0,0 l/m 11,3 km/h (2 Bft) O-SO 112 14,8 C 16,1 C 24,8 km/h (4 Bft)
16.08.2012 03:10 18,1 C 80 % 0,0 l/m 9,8 km/h (2 Bft) SO 135 14,6 C 16,8 C 5,5 km/h (1 Bft)
16.08.2012 03:15 18,2 C 80 % 0,0 l/m 7,6 km/h (2 Bft) O-SO 112 14,7 C 17,8 C 8,7 km/h (2 Bft)
16.08.2012 03:20 18,1 C 80 % 0,0 l/m 5,5 km/h (1 Bft) S 180 14,6 C 18,4 C 2,3 km/h (1 Bft)
16.08.2012 03:25 18,1 C 80 % 0,0 l/m 4,0 km/h (1 Bft) N 360 14,6 C 18,4 C 1,9 km/h (1 Bft)
16.08.2012 03:30 18,2 C 79 % 0,0 l/m 3,9 km/h (1 Bft) SO 135 14,5 C 18,3 C 10,0 km/h (2 Bft)
16.08.2012 03:35 18,1 C 79 % 0,0 l/m 4,2 km/h (1 Bft) S 180 14,4 C 18,4 C 5,3 km/h (1 Bft)
16.08.2012 03:40 18,1 C 79 % 0,0 l/m 4,7 km/h (1 Bft) SO 135 14,4 C 18,3 C 5,1 km/h (1 Bft)
16.08.2012 03:45 17,8 C 80 % 0,0 l/m 5,0 km/h (1 Bft) S-SO 157 14,3 C 18,3 C 8,5 km/h (2 Bft)
16.08.2012 03:50 17,8 C 80 % 0,0 l/m 4,8 km/h (1 Bft) O-SO 112 14,3 C 18,1 C 4,8 km/h (1 Bft)
16.08.2012 03:55 17,6 C 80 % 0,0 l/m 4,2 km/h (1 Bft) SO 135 14,1 C 18,0 C 5,3 km/h (1 Bft)
16.08.2012 04:00 17,5 C 80 % 0,0 l/m 3,1 km/h (1 Bft) O 90 14,0 C 17,9 C 1,6 km/h (1 Bft)
16.08.2012 04:05 17,4 C 80 % 0,0 l/m 1,6 km/h (1 Bft) O 90 13,9 C 17,6 C 3,7 km/h (1 Bft)
16.08.2012 04:10 17,4 C 80 % 0,0 l/m 0,8 km/h (0 Bft) W-SW 247 13,9 C 17,6 C 2,1 km/h (1 Bft)
16.08.2012 04:15 17,4 C 82 % 0,0 l/m 1,0 km/h (0 Bft) N 360 14,3 C 17,4 C 0,0 km/h (0 Bft)
16.08.2012 04:20 17,3 C 82 % 0,0 l/m 0,6 km/h (0 Bft) N 360 14,2 C 17,4 C 0,0 km/h (0 Bft)
16.08.2012 04:25 17,1 C 82 % 0,0 l/m 0,2 km/h (0 Bft) S 180 14,0 C 17,2 C 0,0 km/h (0 Bft)
16.08.2012 04:30 17,0 C 82 % 0,0 l/m 0,2 km/h (0 Bft) O-SO 112 13,9 C 17,1 C 2,9 km/h (1 Bft)
16.08.2012 04:35 16,9 C 82 % 0,0 l/m 1,6 km/h (1 Bft) O 90 13,8 C 17,1 C 2,1 km/h (1 Bft)
16.08.2012 04:40 17,0 C 82 % 0,0 l/m 1,6 km/h (1 Bft) N 360 13,9 C 17,0 C 0,0 km/h (0 Bft)
16.08.2012 04:45 17,0 C 83 % 0,0 l/m 0,5 km/h (0 Bft) N 360 14,1 C 16,9 C 0,0 km/h (0 Bft)
16.08.2012 04:50 17,0 C 83 % 0,0 l/m 0,3 km/h (0 Bft) NO 45 14,1 C 16,8 C 0,0 km/h (0 Bft)
16.08.2012 04:55 16,9 C 83 % 0,0 l/m 0,0 km/h (0 Bft) N-NO 22 14,0 C 16,8 C 0,0 km/h (0 Bft)
16.08.2012 05:00 16,8 C 83 % 0,0 l/m 0,0 km/h (0 Bft) O-SO 112 13,9 C 16,6 C 0,0 km/h (0 Bft)
16.08.2012 05:05 16,6 C 83 % 0,0 l/m 0,0 km/h (0 Bft) N 360 13,7 C 16,4 C 0,0 km/h (0 Bft)
16.08.2012 05:10 16,5 C 83 % 0,0 l/m 0,0 km/h (0 Bft) W 270 13,6 C 16,4 C 0,0 km/h (0 Bft)
16.08.2012 05:15 16,5 C 83 % 0,0 l/m 0,0 km/h (0 Bft) NO 45 13,6 C 16,3 C 0,0 km/h (0 Bft)
16.08.2012 05:20 16,6 C 84 % 0,0 l/m 0,0 km/h (0 Bft) N-NO 22 13,9 C 16,3 C 0,0 km/h (0 Bft)
16.08.2012 05:25 16,5 C 84 % 0,0 l/m 0,0 km/h (0 Bft) W-NW 292 13,8 C 16,2 C 0,0 km/h (0 Bft)
16.08.2012 05:30 16,3 C 84 % 0,0 l/m 0,0 km/h (0 Bft) NO 45 13,6 C 16,2 C 0,0 km/h (0 Bft)
16.08.2012 05:35 16,3 C 84 % 0,0 l/m 0,0 km/h (0 Bft) O-NO 67 13,6 C 16,1 C 0,0 km/h (0 Bft)
16.08.2012 05:40 16,3 C 84 % 0,0 l/m 0,0 km/h (0 Bft) N-NO 22 13,6 C 16,0 C 0,0 km/h (0 Bft)
16.08.2012 05:45 16,2 C 84 % 0,0 l/m 0,0 km/h (0 Bft) N-NO 22 13,5 C 16,0 C 0,0 km/h (0 Bft)
16.08.2012 05:50 16,2 C 84 % 0,0 l/m 0,0 km/h (0 Bft) N-NO 22 13,5 C 16,0 C 0,0 km/h (0 Bft)
16.08.2012 05:55 16,2 C 85 % 0,0 l/m 0,0 km/h (0 Bft) O-SO 112 13,7 C 15,9 C 0,0 km/h (0 Bft)
16.08.2012 06:00 16,1 C 85 % 0,0 l/m 0,0 km/h (0 Bft) N 360 13,6 C 15,8 C 0,0 km/h (0 Bft)
16.08.2012 06:05 16,1 C 85 % 0,0 l/m 0,0 km/h (0 Bft) N 360 13,6 C 15,8 C 0,0 km/h (0 Bft)
16.08.2012 06:10 16,2 C 85 % 0,0 l/m 0,0 km/h (0 Bft) NO 45 13,7 C 15,8 C 0,0 km/h (0 Bft)
16.08.2012 06:15 16,4 C 85 % 0,0 l/m 0,0 km/h (0 Bft) N-NO 22 13,9 C 16,0 C 0,0 km/h (0 Bft)
16.08.2012 06:20 16,5 C 86 % 0,0 l/m 0,0 km/h (0 Bft) N 360 14,1 C 16,1 C 0,0 km/h (0 Bft)
16.08.2012 06:25 16,5 C 85 % 0,0 l/m 0,0 km/h (0 Bft) NO 45 14,0 C 16,2 C 0,0 km/h (0 Bft)
16.08.2012 06:30 16,5 C 85 % 0,0 l/m 0,0 km/h (0 Bft) N-NO 22 14,0 C 16,2 C 0,0 km/h (0 Bft)
16.08.2012 06:35 16,5 C 86 % 0,0 l/m 0,0 km/h (0 Bft) N 360 14,1 C 16,2 C 0,0 km/h (0 Bft)
16.08.2012 06:40 16,5 C 86 % 0,0 l/m 0,0 km/h (0 Bft) N-NO 22 14,1 C 16,3 C 0,0 km/h (0 Bft)
16.08.2012 06:45 16,6 C 86 % 0,0 l/m 0,0 km/h (0 Bft) NO 45 14,2 C 16,3 C 0,0 km/h (0 Bft)
16.08.2012 06:50 16,6 C 85 % 0,0 l/m 0,0 km/h (0 Bft) NO 45 14,1 C 16,4 C 0,0 km/h (0 Bft)
16.08.2012 06:55 16,6 C 85 % 0,0 l/m 0,0 km/h (0 Bft) O-SO 112 14,1 C 16,5 C 0,0 km/h (0 Bft)
16.08.2012 07:00 16,7 C 85 % 0,0 l/m 0,0 km/h (0 Bft) NO 45 14,2 C 16,5 C 0,0 km/h (0 Bft)
16.08.2012 07:05 16,7 C 85 % 0,0 l/m 0,0 km/h (0 Bft) O 90 14,2 C 16,6 C 0,0 km/h (0 Bft)
16.08.2012 07:10 16,8 C 85 % 0,0 l/m 0,2 km/h (0 Bft) O-SO 112 14,3 C 16,7 C 3,5 km/h (1 Bft)
16.08.2012 07:15 16,9 C 85 % 0,0 l/m 2,3 km/h (1 Bft) S-SO 157 14,4 C 16,8 C 4,8 km/h (1 Bft)
16.08.2012 07:20 16,9 C 85 % 0,0 l/m 3,9 km/h (1 Bft) S-SW 202 14,4 C 16,9 C 3,2 km/h (1 Bft)
16.08.2012 07:25 16,9 C 85 % 0,0 l/m 3,5 km/h (1 Bft) O-SO 112 14,4 C 17,0 C 3,7 km/h (1 Bft)
16.08.2012 07:30 16,9 C 85 % 0,0 l/m 3,9 km/h (1 Bft) O-SO 112 14,4 C 17,0 C 7,1 km/h (2 Bft)
16.08.2012 07:35 16,9 C 85 % 0,0 l/m 3,9 km/h (1 Bft) S 180 14,4 C 17,0 C 4,2 km/h (1 Bft)
16.08.2012 07:40 16,9 C 84 % 0,0 l/m 3,5 km/h (1 Bft) S 180 14,2 C 17,0 C 3,7 km/h (1 Bft)
16.08.2012 07:45 16,9 C 84 % 0,0 l/m 3,2 km/h (1 Bft) S 180 14,2 C 17,0 C 4,7 km/h (1 Bft)
16.08.2012 07:50 16,9 C 84 % 0,0 l/m 3,2 km/h (1 Bft) O-SO 112 14,2 C 17,0 C 5,3 km/h (1 Bft)
16.08.2012 07:55 16,8 C 84 % 0,0 l/m 4,0 km/h (1 Bft) S-SO 157 14,1 C 16,9 C 5,3 km/h (1 Bft)
16.08.2012 08:00 16,8 C 84 % 0,0 l/m 4,3 km/h (1 Bft) SO 135 14,1 C 16,8 C 4,2 km/h (1 Bft)
16.08.2012 08:05 16,8 C 84 % 0,0 l/m 5,0 km/h (1 Bft) O-SO 112 14,1 C 16,8 C 4,5 km/h (1 Bft)
16.08.2012 08:10 16,8 C 84 % 0,0 l/m 4,7 km/h (1 Bft) S 180 14,1 C 16,8 C 6,6 km/h (2 Bft)
16.08.2012 08:15 16,7 C 84 % 0,0 l/m 4,8 km/h (1 Bft) S-SO 157 14,0 C 16,7 C 5,3 km/h (1 Bft)
16.08.2012 08:20 16,7 C 85 % 0,0 l/m 4,3 km/h (1 Bft) SO 135 14,2 C 16,6 C 7,1 km/h (2 Bft)
16.08.2012 08:25 16,2 C 86 % 0,0 l/m 5,6 km/h (1 Bft) S-SO 157 13,9 C 16,1 C 9,0 km/h (2 Bft)
16.08.2012 08:30 16,0 C 86 % 0,7 l/m 6,3 km/h (2 Bft) O-SO 112 13,7 C 15,9 C 10,1 km/h (2 Bft)
16.08.2012 08:35 15,9 C 88 % 0,7 l/m 4,8 km/h (1 Bft) O-SO 112 13,9 C 15,6 C 7,4 km/h (2 Bft)
16.08.2012 08:40 15,8 C 89 % 0,7 l/m 4,5 km/h (1 Bft) O 90 14,0 C 15,6 C 3,5 km/h (1 Bft)
16.08.2012 08:45 15,7 C 89 % 0,7 l/m 4,8 km/h (1 Bft) SO 135 13,9 C 15,5 C 7,1 km/h (2 Bft)
16.08.2012 08:50 15,6 C 89 % 0,7 l/m 4,0 km/h (1 Bft) S 180 13,8 C 15,5 C 2,4 km/h (1 Bft)
16.08.2012 08:55 15,6 C 90 % 0,7 l/m 3,2 km/h (1 Bft) NO 45 14,0 C 15,4 C 2,4 km/h (1 Bft)
16.08.2012 09:00 15,6 C 91 % 0,0 l/m 2,7 km/h (1 Bft) S 180 14,1 C 15,4 C 1,8 km/h (1 Bft)
16.08.2012 09:05 15,5 C 91 % 0,7 l/m 1,6 km/h (1 Bft) NO 45 14,0 C 15,4 C 0,0 km/h (0 Bft)
16.08.2012 09:10 15,5 C 91 % 0,7 l/m 1,4 km/h (1 Bft) O 90 14,0 C 15,4 C 0,0 km/h (0 Bft)
16.08.2012 09:15 15,4 C 92 % 0,7 l/m 2,9 km/h (1 Bft) O-SO 112 14,1 C 15,4 C 3,5 km/h (1 Bft)
16.08.2012 09:20 15,4 C 92 % 2,1 l/m 3,4 km/h (1 Bft) SO 135 14,1 C 15,3 C 3,7 km/h (1 Bft)
16.08.2012 09:25 15,3 C 92 % 2,7 l/m 4,5 km/h (1 Bft) S-SO 157 14,0 C 15,3 C 10,0 km/h (2 Bft)
16.08.2012 09:30 15,2 C 92 % 1,4 l/m 6,6 km/h (2 Bft) SO 135 13,9 C 15,2 C 13,7 km/h (3 Bft)
16.08.2012 09:35 14,3 C 92 % 2,1 l/m 11,9 km/h (2 Bft) S-SO 157 13,0 C 11,4 C 17,4 km/h (3 Bft)
16.08.2012 09:40 13,9 C 92 % 0,7 l/m 13,4 km/h (3 Bft) S 180 12,6 C 9,5 C 18,7 km/h (3 Bft)
16.08.2012 09:45 13,5 C 92 % 1,4 l/m 13,8 km/h (3 Bft) SO 135 12,2 C 8,7 C 25,6 km/h (4 Bft)
16.08.2012 09:50 13,5 C 92 % 0,7 l/m 14,0 km/h (3 Bft) SO 135 12,2 C 8,2 C 12,1 km/h (2 Bft)
16.08.2012 09:55 13,5 C 92 % 1,4 l/m 12,6 km/h (3 Bft) S 180 12,2 C 8,9 C 7,1 km/h (2 Bft)
16.08.2012 10:00 13,6 C 92 % 1,4 l/m 9,2 km/h (2 Bft) SO 135 12,3 C 11,1 C 3,2 km/h (1 Bft)
16.08.2012 10:05 13,7 C 93 % 0,7 l/m 7,7 km/h (2 Bft) SO 135 12,6 C 12,5 C 14,2 km/h (3 Bft)
16.08.2012 10:10 13,8 C 93 % 0,7 l/m 8,5 km/h (2 Bft) O-NO 67 12,7 C 12,0 C 16,4 km/h (3 Bft)
16.08.2012 10:15 13,7 C 93 % 0,7 l/m 8,2 km/h (2 Bft) S 180 12,6 C 12,2 C 10,1 km/h (2 Bft)
16.08.2012 10:20 13,7 C 93 % 0,0 l/m 7,7 km/h (2 Bft) O-SO 112 12,6 C 12,6 C 14,3 km/h (3 Bft)
16.08.2012 10:25 13,7 C 93 % 0,0 l/m 7,7 km/h (2 Bft) O-SO 112 12,6 C 12,6 C 12,2 km/h (2 Bft)
16.08.2012 10:30 13,7 C 93 % 0,7 l/m 7,2 km/h (2 Bft) O-SO 112 12,6 C 13,0 C 13,2 km/h (3 Bft)
16.08.2012 10:35 13,8 C 93 % 0,0 l/m 5,3 km/h (1 Bft) S-SO 157 12,7 C 13,7 C 4,7 km/h (1 Bft)
16.08.2012 10:40 14,1 C 93 % 0,0 l/m 4,8 km/h (1 Bft) O-NO 67 13,0 C 13,9 C 2,1 km/h (1 Bft)
16.08.2012 10:45 14,3 C 93 % 0,0 l/m 4,0 km/h (1 Bft) O 90 13,2 C 14,1 C 7,4 km/h (2 Bft)
16.08.2012 10:50 14,4 C 93 % 0,0 l/m 3,7 km/h (1 Bft) S-SO 157 13,3 C 14,2 C 2,4 km/h (1 Bft)
16.08.2012 10:55 14,6 C 93 % 0,0 l/m 3,7 km/h (1 Bft) SO 135 13,5 C 14,4 C 3,9 km/h (1 Bft)
16.08.2012 11:00 14,9 C 93 % 0,0 l/m 2,7 km/h (1 Bft) O-SO 112 13,8 C 14,6 C 2,7 km/h (1 Bft)
16.08.2012 11:05 15,0 C 93 % 0,0 l/m 1,9 km/h (1 Bft) O-SO 112 13,9 C 14,9 C 0,0 km/h (0 Bft)
16.08.2012 11:10 14,9 C 93 % 0,0 l/m 1,3 km/h (1 Bft) O-SO 112 13,8 C 15,0 C 0,0 km/h (0 Bft)
16.08.2012 11:15 14,6 C 93 % 0,0 l/m 0,3 km/h (0 Bft) NO 45 13,5 C 15,1 C 0,0 km/h (0 Bft)
16.08.2012 11:20 14,6 C 93 % 0,0 l/m 0,0 km/h (0 Bft) N-NW 337 13,5 C 15,1 C 0,0 km/h (0 Bft)
16.08.2012 11:25 14,5 C 93 % 0,0 l/m 0,0 km/h (0 Bft) N 360 13,4 C 14,9 C 0,0 km/h (0 Bft)
16.08.2012 11:30 14,5 C 93 % 0,0 l/m 0,0 km/h (0 Bft) W 270 13,4 C 14,9 C 0,0 km/h (0 Bft)
16.08.2012 11:35 14,4 C 93 % 0,0 l/m 0,2 km/h (0 Bft) N-NW 337 13,3 C 14,8 C 0,0 km/h (0 Bft)
16.08.2012 11:40 14,4 C 93 % 0,0 l/m 0,8 km/h (0 Bft) N-NW 337 13,3 C 14,6 C 2,4 km/h (1 Bft)
16.08.2012 11:45 14,3 C 93 % 0,7 l/m 1,8 km/h (1 Bft) W-NW 292 13,2 C 14,4 C 3,4 km/h (1 Bft)
16.08.2012 11:50 14,2 C 93 % 0,0 l/m 2,9 km/h (1 Bft) W 270 13,1 C 14,3 C 5,6 km/h (1 Bft)
16.08.2012 11:55 14,4 C 93 % 0,0 l/m 2,9 km/h (1 Bft) S 180 13,3 C 14,3 C 5,8 km/h (2 Bft)
16.08.2012 12:00 14,5 C 94 % 0,0 l/m 2,6 km/h (1 Bft) W 270 13,5 C 14,3 C 1,9 km/h (1 Bft)
16.08.2012 12:05 14,7 C 94 % 0,0 l/m 1,9 km/h (1 Bft) N 360 13,7 C 14,6 C 3,5 km/h (1 Bft)
16.08.2012 12:10 15,0 C 93 % 0,0 l/m 1,0 km/h (0 Bft) S-SW 202 13,9 C 14,8 C 0,0 km/h (0 Bft)
16.08.2012 12:15 15,2 C 93 % 0,0 l/m 1,9 km/h (1 Bft) W-NW 292 14,1 C 15,2 C 2,6 km/h (1 Bft)
16.08.2012 12:20 15,2 C 93 % 0,0 l/m 1,6 km/h (1 Bft) W-SW 247 14,1 C 15,6 C 1,9 km/h (1 Bft)
16.08.2012 12:25 15,5 C 93 % 0,0 l/m 1,4 km/h (1 Bft) W-NW 292 14,4 C 15,9 C 2,1 km/h (1 Bft)
16.08.2012 12:30 15,6 C 93 % 0,0 l/m 1,1 km/h (1 Bft) NO 45 14,5 C 16,4 C 0,0 km/h (0 Bft)
16.08.2012 12:35 15,6 C 93 % 0,0 l/m 0,5 km/h (0 Bft) S 180 14,5 C 16,8 C 0,0 km/h (0 Bft)
16.08.2012 12:40 15,8 C 93 % 0,0 l/m 0,8 km/h (0 Bft) W-SW 247 14,7 C 17,0 C 2,3 km/h (1 Bft)
16.08.2012 12:45 15,9 C 93 % 0,0 l/m 1,4 km/h (1 Bft) S 180 14,8 C 17,4 C 2,7 km/h (1 Bft)
16.08.2012 12:50 16,1 C 92 % 0,0 l/m 1,9 km/h (1 Bft) S-SW 202 14,8 C 17,6 C 0,0 km/h (0 Bft)
16.08.2012 12:55 16,6 C 92 % 0,0 l/m 1,9 km/h (1 Bft) S 180 15,3 C 18,2 C 3,2 km/h (1 Bft)
16.08.2012 13:00 17,3 C 91 % 0,0 l/m 1,6 km/h (1 Bft) S 180 15,8 C 18,9 C 0,0 km/h (0 Bft)
16.08.2012 13:05 18,3 C 90 % 0,0 l/m 1,0 km/h (0 Bft) N 360 16,6 C 20,8 C 0,0 km/h (0 Bft)
16.08.2012 13:10 17,9 C 90 % 0,0 l/m 0,8 km/h (0 Bft) SO 135 16,2 C 21,7 C 2,6 km/h (1 Bft)
16.08.2012 13:15 18,0 C 89 % 0,0 l/m 1,4 km/h (1 Bft) SO 135 16,2 C 22,1 C 3,1 km/h (1 Bft)
16.08.2012 13:20 17,7 C 88 % 0,0 l/m 1,6 km/h (1 Bft) N 360 15,7 C 22,0 C 3,4 km/h (1 Bft)
16.08.2012 13:25 17,9 C 88 % 0,0 l/m 1,8 km/h (1 Bft) W-NW 292 15,9 C 21,9 C 4,0 km/h (1 Bft)
16.08.2012 13:30 18,3 C 87 % 0,0 l/m 1,4 km/h (1 Bft) W 270 16,1 C 21,9 C 3,2 km/h (1 Bft)
16.08.2012 13:35 18,1 C 86 % 0,0 l/m 1,9 km/h (1 Bft) SO 135 15,7 C 21,6 C 0,0 km/h (0 Bft)
16.08.2012 13:40 18,3 C 86 % 0,0 l/m 2,3 km/h (1 Bft) NW 315 15,9 C 21,8 C 6,3 km/h (2 Bft)
16.08.2012 13:45 18,5 C 85 % 0,0 l/m 2,4 km/h (1 Bft) W-NW 292 15,9 C 21,1 C 0,0 km/h (0 Bft)
16.08.2012 13:50 19,9 C 85 % 0,0 l/m 3,1 km/h (1 Bft) S-SW 202 17,3 C 21,8 C 6,3 km/h (2 Bft)
16.08.2012 13:55 18,4 C 84 % 0,0 l/m 3,7 km/h (1 Bft) O-SO 112 15,6 C 21,6 C 2,4 km/h (1 Bft)
16.08.2012 14:00 18,0 C 85 % 0,0 l/m 3,9 km/h (1 Bft) NW 315 15,4 C 21,2 C 1,9 km/h (1 Bft)
16.08.2012 14:05 18,7 C 85 % 0,0 l/m 2,1 km/h (1 Bft) S 180 16,1 C 22,0 C 0,0 km/h (0 Bft)
16.08.2012 14:10 18,8 C 85 % 0,0 l/m 2,6 km/h (1 Bft) W 270 16,2 C 22,2 C 5,0 km/h (1 Bft)
16.08.2012 14:15 18,1 C 85 % 0,0 l/m 3,4 km/h (1 Bft) W-NW 292 15,5 C 21,5 C 4,8 km/h (1 Bft)
16.08.2012 14:20 18,1 C 86 % 0,0 l/m 3,2 km/h (1 Bft) W 270 15,7 C 21,1 C 4,5 km/h (1 Bft)
16.08.2012 14:25 19,0 C 85 % 0,0 l/m 2,9 km/h (1 Bft) W-SW 247 16,4 C 21,4 C 4,2 km/h (1 Bft)
16.08.2012 14:30 20,1 C 84 % 0,0 l/m 3,4 km/h (1 Bft) O 90 17,3 C 22,5 C 1,6 km/h (1 Bft)
16.08.2012 14:35 19,8 C 83 % 0,0 l/m 3,2 km/h (1 Bft) W-SW 247 16,8 C 24,0 C 5,1 km/h (1 Bft)
16.08.2012 14:40 19,0 C 83 % 0,0 l/m 3,2 km/h (1 Bft) SW 225 16,0 C 23,4 C 1,9 km/h (1 Bft)
16.08.2012 14:45 18,5 C 85 % 0,0 l/m 3,4 km/h (1 Bft) S-SW 202 15,9 C 22,3 C 5,0 km/h (1 Bft)
16.08.2012 14:50 18,4 C 85 % 0,0 l/m 3,1 km/h (1 Bft) W-NW 292 15,8 C 21,6 C 4,8 km/h (1 Bft)
16.08.2012 14:55 18,9 C 86 % 0,0 l/m 2,1 km/h (1 Bft) S-SO 157 16,5 C 21,7 C 1,8 km/h (1 Bft)
16.08.2012 15:00 19,2 C 86 % 0,0 l/m 1,3 km/h (1 Bft) S 180 16,8 C 22,1 C 3,1 km/h (1 Bft)
16.08.2012 15:05 19,3 C 86 % 0,0 l/m 1,3 km/h (1 Bft) N 360 16,9 C 22,5 C 0,0 km/h (0 Bft)
16.08.2012 15:10 18,9 C 86 % 0,0 l/m 0,8 km/h (0 Bft) N-NO 22 16,5 C 22,8 C 0,0 km/h (0 Bft)
16.08.2012 15:15 19,8 C 86 % 0,0 l/m 0,5 km/h (0 Bft) O-NO 67 17,4 C 23,4 C 2,4 km/h (1 Bft)
16.08.2012 15:20 21,0 C 86 % 0,0 l/m 0,6 km/h (0 Bft) N-NO 22 18,6 C 24,5 C 2,7 km/h (1 Bft)
16.08.2012 15:25 20,9 C 85 % 0,0 l/m 1,9 km/h (1 Bft) N-NO 22 18,3 C 24,8 C 2,9 km/h (1 Bft)
16.08.2012 15:30 20,0 C 86 % 0,0 l/m 2,3 km/h (1 Bft) N 360 17,6 C 24,5 C 2,7 km/h (1 Bft)
16.08.2012 15:35 19,8 C 86 % 0,0 l/m 2,3 km/h (1 Bft) N-NW 337 17,4 C 23,2 C 3,7 km/h (1 Bft)
16.08.2012 15:40 20,6 C 87 % 0,0 l/m 2,7 km/h (1 Bft) N-NO 22 18,4 C 23,3 C 1,9 km/h (1 Bft)
16.08.2012 15:45 20,7 C 87 % 0,0 l/m 1,8 km/h (1 Bft) N 360 18,5 C 24,2 C 3,5 km/h (1 Bft)
16.08.2012 15:50 20,2 C 87 % 0,0 l/m 1,1 km/h (1 Bft) N-NO 22 18,0 C 24,2 C 0,0 km/h (0 Bft)
16.08.2012 15:55 19,6 C 87 % 0,0 l/m 1,3 km/h (1 Bft) N 360 17,4 C 23,3 C 0,0 km/h (0 Bft)
16.08.2012 16:00 19,8 C 88 % 0,0 l/m 0,8 km/h (0 Bft) N 360 17,8 C 23,1 C 0,0 km/h (0 Bft)
16.08.2012 16:05 20,6 C 86 % 0,0 l/m 0,8 km/h (0 Bft) N 360 18,2 C 23,9 C 0,0 km/h (0 Bft)
16.08.2012 16:10 20,5 C 83 % 0,0 l/m 1,4 km/h (1 Bft) S-SO 157 17,5 C 24,5 C 4,0 km/h (1 Bft)
16.08.2012 16:15 20,4 C 85 % 0,0 l/m 2,6 km/h (1 Bft) S-SO 157 17,8 C 23,6 C 0,0 km/h (0 Bft)
16.08.2012 16:20 20,0 C 85 % 0,0 l/m 2,6 km/h (1 Bft) O 90 17,4 C 23,3 C 0,0 km/h (0 Bft)
16.08.2012 16:25 20,2 C 86 % 0,0 l/m 1,0 km/h (0 Bft) NO 45 17,8 C 22,8 C 0,0 km/h (0 Bft)
16.08.2012 16:30 20,2 C 87 % 0,0 l/m 0,6 km/h (0 Bft) S 180 18,0 C 23,1 C 0,0 km/h (0 Bft)
16.08.2012 16:35 20,2 C 86 % 0,0 l/m 0,8 km/h (0 Bft) SO 135 17,8 C 23,4 C 4,7 km/h (1 Bft)
16.08.2012 16:40 20,1 C 84 % 0,0 l/m 2,6 km/h (1 Bft) S-SW 202 17,3 C 22,8 C 4,7 km/h (1 Bft)
16.08.2012 16:45 20,1 C 86 % 0,0 l/m 3,2 km/h (1 Bft) NW 315 17,7 C 22,2 C 4,2 km/h (1 Bft)
16.08.2012 16:50 19,9 C 84 % 0,0 l/m 2,4 km/h (1 Bft) NO 45 17,1 C 22,2 C 2,9 km/h (1 Bft)
16.08.2012 16:55 19,9 C 85 % 0,0 l/m 2,3 km/h (1 Bft) W-NW 292 17,3 C 22,3 C 2,3 km/h (1 Bft)
16.08.2012 17:00 20,0 C 84 % 0,0 l/m 2,1 km/h (1 Bft) NO 45 17,2 C 22,5 C 2,7 km/h (1 Bft)
16.08.2012 17:05 20,3 C 85 % 0,0 l/m 2,1 km/h (1 Bft) W 270 17,7 C 22,9 C 2,9 km/h (1 Bft)
16.08.2012 17:10 20,3 C 85 % 0,0 l/m 2,6 km/h (1 Bft) SO 135 17,7 C 22,9 C 3,7 km/h (1 Bft)
16.08.2012 17:15 20,4 C 83 % 0,0 l/m 3,4 km/h (1 Bft) S-SW 202 17,4 C 23,5 C 5,0 km/h (1 Bft)
16.08.2012 17:20 20,6 C 83 % 0,0 l/m 4,5 km/h (1 Bft) W-SW 247 17,6 C 24,0 C 7,9 km/h (2 Bft)
16.08.2012 17:25 20,4 C 83 % 0,0 l/m 4,3 km/h (1 Bft) O-SO 112 17,4 C 24,6 C 8,0 km/h (2 Bft)
16.08.2012 17:30 20,3 C 82 % 0,0 l/m 3,9 km/h (1 Bft) N-NW 337 17,1 C 24,6 C 3,9 km/h (1 Bft)
16.08.2012 17:35 20,1 C 84 % 0,0 l/m 2,6 km/h (1 Bft) S-SW 202 17,3 C 23,6 C 3,1 km/h (1 Bft)
16.08.2012 17:40 20,0 C 84 % 0,0 l/m 2,1 km/h (1 Bft) S-SW 202 17,2 C 22,9 C 3,9 km/h (1 Bft)
16.08.2012 17:45 19,8 C 84 % 0,0 l/m 2,6 km/h (1 Bft) SW 225 17,0 C 21,9 C 2,7 km/h (1 Bft)
16.08.2012 17:50 19,7 C 85 % 0,0 l/m 2,4 km/h (1 Bft) S-SO 157 17,1 C 21,4 C 3,2 km/h (1 Bft)
16.08.2012 17:55 19,7 C 85 % 0,0 l/m 2,4 km/h (1 Bft) SO 135 17,1 C 21,0 C 3,4 km/h (1 Bft)
16.08.2012 18:00 19,7 C 85 % 0,0 l/m 1,8 km/h (1 Bft) W-SW 247 17,1 C 20,9 C 4,8 km/h (1 Bft)
16.08.2012 18:05 19,6 C 83 % 0,0 l/m 1,6 km/h (1 Bft) S-SW 202 16,6 C 20,9 C 1,9 km/h (1 Bft)
16.08.2012 18:10 19,7 C 83 % 0,0 l/m 1,9 km/h (1 Bft) W 270 16,7 C 21,2 C 4,0 km/h (1 Bft)
16.08.2012 18:15 19,2 C 81 % 0,0 l/m 1,8 km/h (1 Bft) NW 315 15,9 C 21,1 C 2,4 km/h (1 Bft)
16.08.2012 18:20 19,1 C 79 % 0,0 l/m 2,6 km/h (1 Bft) W-NW 292 15,4 C 20,8 C 3,1 km/h (1 Bft)
16.08.2012 18:25 18,9 C 80 % 0,0 l/m 2,4 km/h (1 Bft) O 90 15,4 C 20,3 C 0,0 km/h (0 Bft)
16.08.2012 18:30 18,8 C 80 % 0,0 l/m 1,4 km/h (1 Bft) N 360 15,3 C 20,2 C 0,0 km/h (0 Bft)
16.08.2012 18:35 18,4 C 79 % 0,0 l/m 0,2 km/h (0 Bft) O 90 14,7 C 20,1 C 0,0 km/h (0 Bft)
16.08.2012 18:40 18,4 C 79 % 0,0 l/m 0,2 km/h (0 Bft) N-NO 22 14,7 C 20,0 C 0,0 km/h (0 Bft)
16.08.2012 18:45 18,3 C 79 % 0,0 l/m 0,0 km/h (0 Bft) NO 45 14,6 C 19,8 C 0,0 km/h (0 Bft)
16.08.2012 18:50 18,2 C 79 % 0,0 l/m 0,0 km/h (0 Bft) NO 45 14,5 C 19,8 C 0,0 km/h (0 Bft)
16.08.2012 18:55 18,0 C 80 % 0,0 l/m 0,0 km/h (0 Bft) N 360 14,5 C 19,5 C 0,0 km/h (0 Bft)
16.08.2012 19:00 18,0 C 80 % 0,0 l/m 0,3 km/h (0 Bft) N-NO 22 14,5 C 19,1 C 0,0 km/h (0 Bft)
16.08.2012 19:05 18,0 C 80 % 0,0 l/m 0,3 km/h (0 Bft) O 90 14,5 C 18,8 C 0,0 km/h (0 Bft)
16.08.2012 19:10 17,9 C 80 % 0,0 l/m 0,0 km/h (0 Bft) O 90 14,4 C 18,8 C 0,0 km/h (0 Bft)
16.08.2012 19:15 17,7 C 80 % 0,0 l/m 0,0 km/h (0 Bft) O 90 14,2 C 18,8 C 0,0 km/h (0 Bft)
16.08.2012 19:20 17,6 C 81 % 0,0 l/m 0,0 km/h (0 Bft) NO 45 14,3 C 18,7 C 0,0 km/h (0 Bft)
16.08.2012 19:25 17,4 C 81 % 0,0 l/m 0,0 km/h (0 Bft) N-NW 337 14,1 C 18,4 C 0,0 km/h (0 Bft)
16.08.2012 19:30 17,3 C 81 % 0,0 l/m 0,0 km/h (0 Bft) N-NO 22 14,0 C 18,3 C 0,0 km/h (0 Bft)
16.08.2012 19:35 17,5 C 81 % 0,0 l/m 0,0 km/h (0 Bft) NO 45 14,2 C 18,2 C 0,0 km/h (0 Bft)
16.08.2012 19:40 17,6 C 81 % 0,0 l/m 0,0 km/h (0 Bft) NO 45 14,3 C 18,3 C 1,6 km/h (1 Bft)
16.08.2012 19:45 17,5 C 81 % 0,0 l/m 0,0 km/h (0 Bft) N 360 14,2 C 18,2 C 0,0 km/h (0 Bft)
16.08.2012 19:50 17,4 C 80 % 0,0 l/m 0,0 km/h (0 Bft) N 360 13,9 C 18,1 C 0,0 km/h (0 Bft)
16.08.2012 19:55 17,1 C 81 % 0,0 l/m 0,0 km/h (0 Bft) N-NO 22 13,8 C 17,8 C 0,0 km/h (0 Bft)
16.08.2012 20:00 16,9 C 81 % 0,0 l/m 0,0 km/h (0 Bft) N-NO 22 13,6 C 17,5 C 0,0 km/h (0 Bft)
16.08.2012 20:05 16,7 C 83 % 0,0 l/m 0,0 km/h (0 Bft) N 360 13,8 C 17,1 C 0,0 km/h (0 Bft)
16.08.2012 20:10 16,6 C 83 % 0,0 l/m 0,0 km/h (0 Bft) NO 45 13,7 C 16,9 C 0,0 km/h (0 Bft)
16.08.2012 20:15 16,5 C 85 % 0,0 l/m 0,0 km/h (0 Bft) NO 45 14,0 C 16,6 C 0,0 km/h (0 Bft)
16.08.2012 20:20 16,4 C 86 % 0,0 l/m 0,0 km/h (0 Bft) NO 45 14,1 C 16,5 C 0,0 km/h (0 Bft)
16.08.2012 20:25 16,3 C 86 % 0,0 l/m 0,2 km/h (0 Bft) NO 45 14,0 C 16,3 C 2,3 km/h (1 Bft)
16.08.2012 20:30 16,2 C 86 % 0,0 l/m 0,3 km/h (0 Bft) N-NO 22 13,9 C 16,2 C 1,6 km/h (1 Bft)
16.08.2012 20:35 15,9 C 86 % 0,0 l/m 0,2 km/h (0 Bft) O-NO 67 13,6 C 15,9 C 0,0 km/h (0 Bft)
16.08.2012 20:40 15,7 C 86 % 0,0 l/m 0,0 km/h (0 Bft) O-NO 67 13,4 C 15,7 C 0,0 km/h (0 Bft)
16.08.2012 20:45 15,4 C 86 % 0,0 l/m 0,0 km/h (0 Bft) O 90 13,1 C 15,4 C 0,0 km/h (0 Bft)
16.08.2012 20:50 15,2 C 86 % 0,0 l/m 0,0 km/h (0 Bft) N-NO 22 12,9 C 15,1 C 0,0 km/h (0 Bft)
16.08.2012 20:55 15,0 C 87 % 0,0 l/m 0,0 km/h (0 Bft) W-NW 292 12,9 C 14,7 C 0,0 km/h (0 Bft)
16.08.2012 21:00 14,9 C 87 % 0,0 l/m 0,0 km/h (0 Bft) N 360 12,8 C 14,6 C 0,0 km/h (0 Bft)
16.08.2012 21:05 14,7 C 88 % 0,0 l/m 0,0 km/h (0 Bft) N-NO 22 12,7 C 14,3 C 0,0 km/h (0 Bft)
16.08.2012 21:10 14,6 C 88 % 0,0 l/m 0,0 km/h (0 Bft) NO 45 12,6 C 14,1 C 0,0 km/h (0 Bft)
16.08.2012 21:15 14,4 C 88 % 0,0 l/m 0,0 km/h (0 Bft) O-SO 112 12,4 C 13,9 C 0,0 km/h (0 Bft)
16.08.2012 21:20 14,3 C 88 % 0,0 l/m 0,2 km/h (0 Bft) NO 45 12,3 C 13,7 C 1,6 km/h (1 Bft)
16.08.2012 21:25 14,1 C 88 % 0,0 l/m 0,2 km/h (0 Bft) N-NO 22 12,1 C 13,5 C 0,0 km/h (0 Bft)
16.08.2012 21:30 14,0 C 88 % 0,0 l/m 0,2 km/h (0 Bft) N-NO 22 12,0 C 13,4 C 0,0 km/h (0 Bft)
16.08.2012 21:35 13,7 C 88 % 0,0 l/m 0,0 km/h (0 Bft) NO 45 11,7 C 13,4 C 0,0 km/h (0 Bft)
16.08.2012 21:40 13,6 C 88 % 0,0 l/m 0,0 km/h (0 Bft) N 360 11,6 C 13,1 C 0,0 km/h (0 Bft)
16.08.2012 21:45 13,6 C 89 % 0,0 l/m 0,0 km/h (0 Bft) N-NO 22 11,8 C 13,0 C 0,0 km/h (0 Bft)
16.08.2012 21:50 13,6 C 89 % 0,0 l/m 0,0 km/h (0 Bft) N-NO 22 11,8 C 12,9 C 0,0 km/h (0 Bft)
16.08.2012 21:55 13,5 C 89 % 0,0 l/m 0,0 km/h (0 Bft) NO 45 11,7 C 12,8 C 0,0 km/h (0 Bft)
16.08.2012 22:00 13,5 C 89 % 0,0 l/m 0,0 km/h (0 Bft) NO 45 11,7 C 12,8 C 0,0 km/h (0 Bft)
16.08.2012 22:05 13,3 C 89 % 0,0 l/m 0,0 km/h (0 Bft) S 180 11,5 C 12,7 C 0,0 km/h (0 Bft)
16.08.2012 22:10 12,9 C 89 % 0,0 l/m 0,0 km/h (0 Bft) N 360 11,1 C 12,5 C 0,0 km/h (0 Bft)
16.08.2012 22:15 13,1 C 89 % 0,0 l/m 0,0 km/h (0 Bft) N-NO 22 11,3 C 12,4 C 0,0 km/h (0 Bft)
16.08.2012 22:20 13,1 C 89 % 0,0 l/m 0,0 km/h (0 Bft) N-NO 22 11,3 C 12,4 C 0,0 km/h (0 Bft)
16.08.2012 22:25 13,2 C 90 % 0,0 l/m 0,3 km/h (0 Bft) NO 45 11,6 C 12,5 C 1,9 km/h (1 Bft)
16.08.2012 22:30 13,1 C 90 % 0,0 l/m 0,3 km/h (0 Bft) N-NO 22 11,5 C 12,5 C 0,0 km/h (0 Bft)
16.08.2012 22:35 12,8 C 91 % 0,0 l/m 0,3 km/h (0 Bft) N-NO 22 11,4 C 12,4 C 0,0 km/h (0 Bft)
16.08.2012 22:40 12,6 C 91 % 0,0 l/m 0,0 km/h (0 Bft) W-SW 247 11,2 C 12,2 C 0,0 km/h (0 Bft)
16.08.2012 22:45 12,3 C 91 % 0,0 l/m 0,0 km/h (0 Bft) O-NO 67 10,9 C 11,9 C 0,0 km/h (0 Bft)
16.08.2012 22:50 12,5 C 91 % 0,0 l/m 0,0 km/h (0 Bft) N-NO 22 11,1 C 11,9 C 0,0 km/h (0 Bft)
16.08.2012 22:55 12,6 C 91 % 0,0 l/m 0,0 km/h (0 Bft) NO 45 11,2 C 12,0 C 0,0 km/h (0 Bft)
16.08.2012 23:00 12,4 C 91 % 0,0 l/m 0,0 km/h (0 Bft) N-NW 337 11,0 C 11,9 C 0,0 km/h (0 Bft)
16.08.2012 23:05 12,2 C 91 % 0,0 l/m 0,0 km/h (0 Bft) N-NW 337 10,8 C 11,9 C 0,0 km/h (0 Bft)
16.08.2012 23:10 12,3 C 91 % 0,0 l/m 0,0 km/h (0 Bft) N-NO 22 10,9 C 11,9 C 0,0 km/h (0 Bft)
16.08.2012 23:15 12,4 C 91 % 0,0 l/m 0,0 km/h (0 Bft) N-NO 22 11,0 C 11,9 C 0,0 km/h (0 Bft)
16.08.2012 23:20 12,1 C 91 % 0,0 l/m 0,0 km/h (0 Bft) S-SW 202 10,7 C 11,9 C 0,0 km/h (0 Bft)
16.08.2012 23:25 11,9 C 91 % 0,0 l/m 0,0 km/h (0 Bft) NO 45 10,5 C 11,7 C 0,0 km/h (0 Bft)
16.08.2012 23:30 12,0 C 91 % 0,0 l/m 0,0 km/h (0 Bft) W 270 10,6 C 11,6 C 0,0 km/h (0 Bft)
16.08.2012 23:35 12,1 C 92 % 0,0 l/m 0,0 km/h (0 Bft) N-NO 22 10,8 C 11,6 C 0,0 km/h (0 Bft)
16.08.2012 23:40 12,3 C 92 % 0,0 l/m 0,0 km/h (0 Bft) NO 45 11,0 C 11,7 C 0,0 km/h (0 Bft)
16.08.2012 23:45 12,0 C 92 % 0,0 l/m 0,0 km/h (0 Bft) S 180 10,7 C 11,7 C 0,0 km/h (0 Bft)
16.08.2012 23:50 11,9 C 92 % 0,0 l/m 0,2 km/h (0 Bft) O-NO 67 10,6 C 11,7 C 0,0 km/h (0 Bft)
16.08.2012 23:55 12,0 C 92 % 0,0 l/m 0,2 km/h (0 Bft) W-SW 247 10,7 C 11,6 C 0,0 km/h (0 Bft)
_ Min-Zeit 23:50 18:50 - 23:45 - - 23:25 09:50 23:55
Minimum _ 11,9 C 79 % - 0,0 km/h (0 Bft) - - 10,5 C 8,2 C 0,0 km/h (0 Bft)
_ Max-Zeit 15:20 12:05 09:25 09:50 - - 15:20 15:25 09:45
Maximum _ 21,0 C 94 % 2,7 l/m 14,0 km/h
SO (3 Bft)
- - 18,6 C 24,8 C 25,6 km/h
SO (4 Bft)
Durchschnitt _ 16,4 C 86 % #23,4 l/m 2,1 km/h (1 Bft) O-SO - 14,1 C 16,9 C 2,8 km/h (1 Bft)